This is the latest recevied weather packets stored in our database for station/object N8QF-1. If no packets are shown the sender has not sent any weather packets the latest 10 day(s).
| Time | Temp. | Humidity | Pressure | Rain* | Wind** | Luminosity | Snow |
|---|---|---|---|---|---|---|---|
| 1777728388 | 6.67° C | 55% | 1018.6 hPa | 0 mm | - | - | - |
| 1777727787 | 6.11° C | 57% | 1018.6 hPa | 0 mm | - | - | - |
| 1777727487 | 6.11° C | 56% | 1018.6 hPa | 0 mm | - | - | - |
| 1777727186 | 6.11° C | 58% | 1018.6 hPa | 0 mm | - | - | - |
| 1777726885 | 6.11° C | 59% | 1018.3 hPa | 0 mm | - | - | - |
| 1777726585 | 6.11° C | 61% | 1018.4 hPa | 0 mm | - | - | - |
| 1777726284 | 5.56° C | 61% | 1018.4 hPa | 0 mm | - | - | - |
| 1777725984 | 5.56° C | 62% | 1018.4 hPa | 0 mm | - | - | - |
| 1777725683 | 5.56° C | 63% | 1018.4 hPa | 0 mm | - | - | - |
| 1777725383 | 5° C | 62% | 1018.3 hPa | 0 mm | - | - | - |
| 1777725082 | 5° C | 64% | 1018.3 hPa | 0 mm | - | - | - |
| 1777724782 | 5° C | 65% | 1018.3 hPa | 0 mm | - | - | - |
| 1777724481 | 5° C | 65% | 1018.3 hPa | 0 mm | - | - | - |
| 1777724181 | 5° C | 67% | 1018.2 hPa | 0 mm | - | - | - |
| 1777723579 | 4.44° C | 67% | 1018.2 hPa | 0 mm | - | - | - |
| 1777722978 | 4.44° C | 72% | 1018 hPa | 0 mm | - | - | - |
| 1777722678 | 4.44° C | 75% | 1017.9 hPa | 0 mm | - | - | - |
| 1777722377 | 4.44° C | 78% | 1017.9 hPa | 0 mm | - | - | - |
| 1777722076 | 4.44° C | 78% | 1017.9 hPa | 0 mm | - | - | - |
| 1777721775 | 4.44° C | 78% | 1017.8 hPa | 0 mm | - | - | - |
| 1777721475 | 4.44° C | 77% | 1017.7 hPa | 0 mm | - | - | - |
| 1777721174 | 4.44° C | 77% | 1017.9 hPa | 0 mm | - | - | - |
| 1777720874 | 4.44° C | 77% | 1017.8 hPa | 0 mm | - | - | - |
| 1777720573 | 4.44° C | 77% | 1017.9 hPa | 0 mm | - | - | - |
| 1777720273 | 4.44° C | 77% | 1017.8 hPa | 0 mm | - | - | - |
* Rain latest hour (hover to see other rain measurements)
** Current wind speed in m/s (hover to see current wind gust speed)